SQ4MUI-13 Weather Reports


time (UTC)temp
C
wind
direction
speed
KPH
gust
KPH
rain 1hr
cm
rain 24hr
cm
rain mn
cm
humidity
%
barometer
mb
20260507050924 -17 0.0 0.0 0.00 0.00 0.00 10 1007.4
20260507045921 -17 0.0 0.0 0.00 0.00 0.00 10 1007.4
20260507044917 -17 0.0 0.0 0.00 0.00 0.00 10 1007.4
20260507043914 -17 0.0 0.0 0.00 0.00 0.00 10 1007.2
20260507042911 -17 0.0 0.0 0.00 0.00 0.00 10 1007.1
20260507041908 -17 0.0 0.0 0.00 0.00 0.00 10 1007.1
20260507040905 -17 0.0 0.0 0.00 0.00 0.00 10 1007.1
20260507035902 -17 0.0 0.0 0.00 0.00 0.00 10 1007.0
20260507034859 -17 0.0 0.0 0.00 0.00 0.00 10 1007.0
20260507033856 -17 0.0 0.0 0.00 0.00 0.00 10 1006.9
20260507032853 -17 0.0 0.0 0.00 0.00 0.00 10 1006.8
20260507031850 -17 0.0 0.0 0.00 0.00 0.00 10 1006.9
20260507030847 -17 0.0 0.0 0.00 0.00 0.00 10 1006.8
20260507025844 -17 0.0 0.0 0.00 0.00 0.00 10 1006.9
20260507024841 -17 0.0 0.0 0.00 0.00 0.00 10 1007.0
20260507023838 -17 0.0 0.0 0.00 0.00 0.00 10 1007.0
20260507022835 -17 0.0 0.0 0.00 0.00 0.00 10 1007.0
20260507021832 -17 0.0 0.0 0.00 0.00 0.00 10 1007.1
20260507020829 -17 0.0 0.0 0.00 0.00 0.00 10 1006.7
20260507015826 -17 0.0 0.0 0.00 0.00 0.00 10 1006.8
20260507014823 -17 0.0 0.0 0.00 0.00 0.00 10 1006.7
20260507013820 -17 0.0 0.0 0.00 0.00 0.00 10 1006.8
20260507012817 -17 0.0 0.0 0.00 0.00 0.00 10 1006.8
20260507011814 -17 0.0 0.0 0.00 0.00 0.00 10 1006.8
20260507010811 -17 0.0 0.0 0.00 0.00 0.00 10 1006.8
20260507005808 -17 0.0 0.0 0.00 0.00 0.00 10 1006.6
20260507004805 -17 0.0 0.0 0.00 0.00 0.00 10 1006.6
20260507003802 -17 0.0 0.0 0.00 0.00 0.00 10 1006.7
20260507002758 -17 0.0 0.0 0.00 0.00 0.00 10 1006.8
20260507001755 -17 0.0 0.0 0.00 0.00 0.00 10 1006.9
20260507000752 -17 0.0 0.0 0.00 0.00 0.00 10 1006.9
20260506235749 -17 0.0 0.0 0.00 0.00 0.00 10 1006.9
20260506234746 -17 0.0 0.0 0.00 0.00 0.00 10 1006.9
20260506233743 -17 0.0 0.0 0.00 0.00 0.00 10 1007.1
20260506232739 -17 0.0 0.0 0.00 0.00 0.00 10 1007.2
20260506231736 -17 0.0 0.0 0.00 0.00 0.00 10 1007.2
20260506230733 -17 0.0 0.0 0.00 0.00 0.00 10 1007.3
20260506225730 -17 0.0 0.0 0.00 0.00 0.00 10 1007.3
20260506224727 -17 0.0 0.0 0.00 0.00 0.00 10 1007.4
20260506223723 -17 0.0 0.0 0.00 0.00 0.00 10 1007.5
20260506222720 -17 0.0 0.0 0.00 0.00 0.00 10 1007.3
20260506221717 -17 0.0 0.0 0.00 0.00 0.00 10 1007.2
20260506220714 -17 0.0 0.0 0.00 0.00 0.00 10 1007.2
20260506215711 -17 0.0 0.0 0.00 0.00 0.00 10 1007.0
20260506214708 -17 0.0 0.0 0.00 0.00 0.00 10 1007.0
20260506213705 -17 0.0 0.0 0.00 0.00 0.00 10 1007.1
20260506212702 -17 0.0 0.0 0.00 0.00 0.00 10 1007.1
20260506211657 -17 0.0 0.0 0.00 0.00 0.00 10 1007.2
20260506210653 -17 0.0 0.0 0.00 0.00 0.00 10 1007.2
20260506205650 -17 0.0 0.0 0.00 0.00 0.00 10 1007.3
20260506204647 -17 0.0 0.0 0.00 0.00 0.00 10 1007.2
20260506203644 -17 0.0 0.0 0.00 0.00 0.00 10 1007.2
20260506202641 -17 0.0 0.0 0.00 0.00 0.00 10 1007.2
20260506201638 -17 0.0 0.0 0.00 0.00 0.00 97 1007.2
20260506200635 -17 0.0 0.0 0.00 0.00 0.00 93 1007.1
20260506195632 -17 0.0 0.0 0.00 0.00 0.00 90 1007.1
20260506194629 -17 0.0 0.0 0.00 0.00 0.00 86 1007.0
20260506193626 -17 0.0 0.0 0.00 0.00 0.00 82 1007.0
20260506192623 -17 0.0 0.0 0.00 0.00 0.00 76 1007.0
20260506191620 -17 0.0 0.0 0.00 0.00 0.00 71 1007.0
20260506190617 -17 0.0 0.0 0.00 0.00 0.00 67 1006.8
20260506185614 -17 0.0 0.0 0.00 0.00 0.00 64 1006.7
20260506184611 -17 0.0 0.0 0.00 0.00 0.00 61 1006.6
20260506183607 -17 0.0 0.0 0.00 0.00 0.00 58 1006.4
20260506182604 -17 0.0 0.0 0.00 0.00 0.00 56 1006.2
20260506181600 -17 0.0 0.0 0.00 0.00 0.00 53 1006.1
20260506180558 -17 0.0 0.0 0.00 0.00 0.00 51 1006.0
20260506175555 -17 0.0 0.0 0.00 0.00 0.00 49 1006.0
20260506174552 -17 0.0 0.0 0.00 0.00 0.00 48 1005.9
20260506173549 -17 0.0 0.0 0.00 0.00 0.00 47 1005.9
20260506172545 -17 0.0 0.0 0.00 0.00 0.00 46 1005.8
20260506171542 -17 0.0 0.0 0.00 0.00 0.00 44 1005.6
20260506170539 -17 0.0 0.0 0.00 0.00 0.00 42 1005.5
20260506165535 -17 0.0 0.0 0.00 0.00 0.00 40 1005.4
20260506164532 -17 0.0 0.0 0.00 0.00 0.00 37 1005.4
20260506163529 -17 0.0 0.0 0.00 0.00 0.00 32 1005.3
20260506162526 -17 0.0 0.0 0.00 0.00 0.00 34 1005.3
20260506161523 -17 0.0 0.0 0.00 0.00 0.00 35 1005.2
20260506160520 -17 0.0 0.0 0.00 0.00 0.00 36 1005.2
20260506155517 -17 0.0 0.0 0.00 0.00 0.00 33 1005.2
20260506154514 -17 0.0 0.0 0.00 0.00 0.00 33 1005.3
20260506153511 -17 0.0 0.0 0.00 0.00 0.00 32 1005.2
20260506152508 -17 0.0 0.0 0.00 0.00 0.00 35 1005.1
20260506151505 -17 0.0 0.0 0.00 0.00 0.00 35 1005.1
20260506150502 -17 0.0 0.0 0.00 0.00 0.00 34 1005.0
20260506145457 -17 0.0 0.0 0.00 0.00 0.00 33 1005.1
20260506144454 -17 0.0 0.0 0.00 0.00 0.00 32 1005.1
20260506143451 -17 0.0 0.0 0.00 0.00 0.00 30 1005.1
20260506142447 -17 0.0 0.0 0.00 0.00 0.00 29 1005.1
20260506141444 -17 0.0 0.0 0.00 0.00 0.00 29 1004.8
20260506140441 -17 0.0 0.0 0.00 0.00 0.00 31 1004.9
20260506135438 -17 0.0 0.0 0.00 0.00 0.00 31 1004.9
20260506134435 -17 0.0 0.0 0.00 0.00 0.00 30 1004.9
20260506133432 -17 0.0 0.0 0.00 0.00 0.00 29 1005.1
20260506132429 -17 0.0 0.0 0.00 0.00 0.00 30 1005.0
20260506131426 -17 0.0 0.0 0.00 0.00 0.00 29 1005.3
20260506130423 -17 0.0 0.0 0.00 0.00 0.00 28 1005.2
20260506125420 -17 0.0 0.0 0.00 0.00 0.00 30 1005.2
20260506124417 -17 0.0 0.0 0.00 0.00 0.00 30 1004.9
20260506123414 -17 0.0 0.0 0.00 0.00 0.00 30 1005.0
20260506122411 -17 0.0 0.0 0.00 0.00 0.00 30 1005.0
20260506121408 -17 0.0 0.0 0.00 0.00 0.00 31 1005.3
20260506120405 -17 0.0 0.0 0.00 0.00 0.00 31 1005.3
20260506115402 -17 0.0 0.0 0.00 0.00 0.00 31 1005.5
20260506114359 -17 0.0 0.0 0.00 0.00 0.00 31 1005.8
20260506113355 -17 0.0 0.0 0.00 0.00 0.00 30 1005.9
20260506112352 -17 0.0 0.0 0.00 0.00 0.00 29 1005.9
20260506111350 -17 0.0 0.0 0.00 0.00 0.00 33 1005.9
20260506110346 -17 0.0 0.0 0.00 0.00 0.00 32 1005.9
20260506105343 -17 0.0 0.0 0.00 0.00 0.00 33 1006.0
20260506104340 -17 0.0 0.0 0.00 0.00 0.00 36 1006.0
20260506103337 -17 0.0 0.0 0.00 0.00 0.00 38 1006.1
20260506102334 -17 0.0 0.0 0.00 0.00 0.00 38 1006.2
20260506101330 -17 0.0 0.0 0.00 0.00 0.00 39 1006.4
20260506100327 -17 0.0 0.0 0.00 0.00 0.00 40 1006.3
20260506095324 -17 0.0 0.0 0.00 0.00 0.00 40 1006.4
20260506094321 -17 0.0 0.0 0.00 0.00 0.00 42 1006.5
20260506093318 -17 0.0 0.0 0.00 0.00 0.00 45 1006.5
20260506092315 -17 0.0 0.0 0.00 0.00 0.00 47 1006.6
20260506091312 -17 0.0 0.0 0.00 0.00 0.00 51 1006.8
20260506090308 -17 0.0 0.0 0.00 0.00 0.00 61 1006.9
20260506085306 -17 0.0 0.0 0.00 0.00 0.00 66 1007.0
20260506084302 -17 0.0 0.0 0.00 0.00 0.00 74 1007.0
20260506083259 -17 0.0 0.0 0.00 0.00 0.00 78 1006.9
20260506082256 -17 0.0 0.0 0.00 0.00 0.00 80 1007.0
20260506081253 -17 0.0 0.0 0.00 0.00 0.00 82 1007.2
20260506080250 -17 0.0 0.0 0.00 0.00 0.00 84 1007.4
20260506073241 -17 0.0 0.0 0.00 0.00 0.00 98 1007.5
20260506072238 -17 0.0 0.0 0.00 0.00 0.00 10 1007.6
20260506071234 -17 0.0 0.0 0.00 0.00 0.00 10 1007.5
20260506070231 -17 0.0 0.0 0.00 0.00 0.00 10 1007.5
20260506061709 -17 0.0 0.0 0.00 0.00 0.00 10 1007.7
20260506060706 -17 0.0 0.0 0.00 0.00 0.00 10 1007.7